CW3684 Weather Reports


Display with metric or nautical units.
time (UTC)temp
F
wind
direction
speed
MPH
gust
MPH
rain 1hr
in
rain 24hr
in
rain mn
in
humidity
%
barometer
mb
20260507063029 39 135 16.0 27.0 0.00 0.00 0.00 74 1010.9
20260507061528 39 127 20.0 27.0 0.00 0.00 0.00 73 1010.7
20260507060028 39 132 17.0 26.0 0.00 0.00 0.00 70 1010.6
20260507054526 40 115 18.0 32.0 0.00 0.00 0.00 68 1010.6
20260507053026 40 159 21.0 28.0 0.00 0.00 0.00 67 1010.5
20260507051525 41 127 15.0 28.0 0.00 0.00 0.00 66 1010.4
20260507050038 41 132 17.0 30.0 0.00 0.00 0.00 65 1010.4
20260507044523 42 84 18.0 29.0 0.00 0.00 0.00 63 1010.2
20260507043021 42 78 18.0 31.0 0.00 0.00 0.00 64 1010.0
20260507041519 42 94 18.0 35.0 0.00 0.00 0.00 62 1009.8
20260507040018 43 167 20.0 28.0 0.00 0.00 0.00 60 1009.9
20260507034520 43 144 20.0 35.0 0.00 0.00 0.00 60 1009.6
20260507033017 43 111 13.0 30.0 0.00 0.00 0.00 61 1009.5
20260507031514 43 146 17.0 31.0 0.00 0.00 0.00 62 1009.3
20260507030016 44 173 21.0 32.0 0.00 0.00 0.00 60 1009.1
20260507024511 44 117 21.0 35.0 0.00 0.00 0.00 59 1009.0
20260507023009 45 180 13.0 27.0 0.00 0.00 0.00 59 1008.7
20260507021508 45 153 14.0 28.0 0.00 0.00 0.00 60 1008.6
20260507020008 45 128 23.0 30.0 0.00 0.00 0.00 59 1008.4
20260507014507 46 121 22.0 32.0 0.00 0.00 0.00 57 1008.4
20260507013005 47 128 19.0 31.0 0.00 0.00 0.00 58 1008.4
20260507011504 48 100 22.0 28.0 0.00 0.00 0.00 54 1008.4
20260507010004 49 30 18.0 33.0 0.00 0.00 0.00 54 1008.1
20260507004504 48 140 19.0 29.0 0.00 0.00 0.00 52 1008.2
20260507003001 49 139 18.0 27.0 0.00 0.00 0.00 50 1008.2
20260507001607 50 74 14.0 24.0 0.00 0.00 0.00 53 1008.1
20260507000124 49 134 16.0 26.0 0.00 0.00 0.00 53 1008.2
20260506234621 48 115 18.0 26.0 0.00 0.00 0.00 55 1008.2
20260506233058 49 141 16.0 24.0 0.00 0.00 0.00 56 1007.9
20260506231557 50 135 16.0 25.0 0.00 0.00 0.00 54 1008.0
20260506224556 50 125 17.0 29.0 0.00 0.00 0.00 52 1008.1
20260506223051 49 146 15.0 25.0 0.00 0.00 0.00 57 1008.0
20260506221559 49 155 17.0 27.0 0.00 0.00 0.00 57 1008.1
20260506220049 49 142 16.0 24.0 0.00 0.00 0.00 54 1008.2
20260506214548 48 153 23.0 32.0 0.00 0.00 0.00 53 1008.1
20260506213053 49 139 25.0 32.0 0.00 0.00 0.00 55 1008.0
20260506211551 49 175 17.0 30.0 0.00 0.00 0.00 58 1008.1
20260506210046 49 181 18.0 26.0 0.00 0.00 0.00 60 1008.0
20260506204537 47 104 15.0 27.0 0.00 0.00 0.00 66 1008.2
20260506203034 45 109 11.0 22.0 0.00 0.00 0.00 70 1008.2
20260506201536 43 141 15.0 22.0 0.00 0.00 0.00 78 1008.3
20260506200030 42 128 11.0 17.0 0.00 0.00 0.00 80 1008.3
20260506194524 41 138 14.0 21.0 0.00 0.00 0.00 81 1008.4
20260506193032 42 139 9.0 20.0 0.00 0.00 0.00 82 1008.4
20260506191519 41 143 13.0 19.0 0.00 0.00 0.00 82 1008.3
20260506190016 40 114 7.0 11.0 0.00 0.00 0.00 84 1008.4
20260506184512 40 148 6.0 14.0 0.00 0.00 0.00 84 1008.4
20260506183006 39 146 5.0 11.0 0.00 0.00 0.00 85 1008.3
20260506181517 39 241 5.0 14.0 0.00 0.00 0.00 84 1008.3
20260506180005 39 164 5.0 15.0 0.00 0.00 0.00 84 1008.3
20260506174502 39 173 6.0 13.0 0.00 0.00 0.00 86 1008.2
20260506173127 38 173 5.0 16.0 0.00 0.00 0.00 86 1008.3
20260506171701 38 146 10.0 18.0 0.00 0.00 0.00 86 1008.1
20260506170107 39 131 14.0 22.0 0.00 0.00 0.00 84 1008.0
20260506164554 39 86 12.0 23.0 0.00 0.00 0.00 83 1007.7
20260506163058 39 168 15.0 22.0 0.00 0.00 0.00 83 1007.7
20260506161550 38 142 14.0 23.0 0.00 0.00 0.00 83 1007.6
20260506160049 38 138 15.0 23.0 0.00 0.00 0.00 83 1007.6
20260506154606 38 132 12.0 19.0 0.00 0.00 0.00 84 1007.5
20260506153046 38 131 13.0 22.0 0.00 0.00 0.00 84 1007.5
20260506151543 37 127 13.0 20.0 0.00 0.00 0.00 84 1007.5
20260506150039 37 140 13.0 19.0 0.00 0.00 0.00 83 1007.3
20260506144544 37 134 13.0 23.0 0.00 0.00 0.00 83 1007.5
20260506143037 37 141 16.0 21.0 0.00 0.00 0.00 83 1007.3
20260506141534 37 136 18.0 23.0 0.00 0.00 0.00 83 1007.1
20260506140035 37 105 20.0 27.0 0.00 0.00 0.00 82 1007.1
20260506134529 37 123 20.0 30.0 0.00 0.00 0.00 81 1006.7
20260506133025 38 98 18.0 29.0 0.00 0.00 0.00 80 1006.7
20260506131524 38 155 15.0 24.0 0.00 0.00 0.00 80 1006.6
20260506130025 38 146 9.0 16.0 0.00 0.00 0.00 79 1006.7
20260506124521 38 99 12.0 20.0 0.00 0.00 0.00 79 1006.5
20260506123020 38 132 16.0 27.0 0.00 0.00 0.00 79 1006.4
20260506121516 38 136 13.0 21.0 0.00 0.00 0.00 78 1006.4
20260506120014 38 140 10.0 18.0 0.00 0.00 0.00 78 1006.3
20260506114512 38 186 9.0 19.0 0.00 0.01 0.00 78 1006.5
20260506113011 38 156 16.0 24.0 0.00 0.01 0.00 78 1006.3
20260506111511 38 128 16.0 24.0 0.00 0.01 0.00 79 1006.2
20260506110006 38 156 15.0 23.0 0.00 0.01 0.00 78 1006.2
20260506104515 38 143 13.0 21.0 0.00 0.01 0.00 79 1006.3
20260506103007 38 142 10.0 17.0 0.00 0.01 0.00 79 1006.3
20260506101506 38 136 9.0 17.0 0.00 0.01 0.00 79 1006.1
20260506100100 38 155 9.0 19.0 0.00 0.01 0.00 80 1005.9
20260506094559 38 142 11.0 18.0 0.00 0.01 0.00 81 1005.9
20260506093057 38 142 10.0 17.0 0.00 0.01 0.00 81 1005.8
20260506091559 38 155 11.0 22.0 0.00 0.01 0.00 80 1005.7
20260506090054 38 137 10.0 17.0 0.00 0.01 0.00 80 1005.7
20260506084553 38 172 8.0 13.0 0.00 0.02 0.00 80 1005.6
20260506083051 38 138 6.0 12.0 0.00 0.02 0.00 81 1005.4
20260506081556 38 169 5.0 12.0 0.00 0.02 0.00 81 1005.1
20260506073041 38 99 16.0 23.0 0.00 0.03 0.02 81 1004.6
20260506071540 38 113 13.0 22.0 0.00 0.03 0.02 82 1004.6